Terminal Aerodrome Forecast
Issued by NWS

Home | Current Version | Previous Version | Text Only | Print | Product List | Glossary On
Versions: 1 2 3 4 5 6 7 8 9 10 11 12 13 14 15 16 17 18
000
FTUS41 KBOX 230814 AAA
TAFFMH
TAF AMD
KFMH 230814Z 2308/2406 24005KT 1/2SM FG OVC002
     FM231200 27007KT P6SM BKN080
     FM231700 27012KT P6SM BKN040
     FM232100 30015G22KT P6SM BKN040=

USA.gov is the U.S. government's official web portal to all federal, state and local government web resources and services.